Change the Weather History Date:

Monday, December 3, 2012

  Actual Average Record
Temperature  
Mean Temperature 54 °F -  
Max Temperature 57 °F 40 °F 67 °F (1982)
Min Temperature 51 °F 25 °F -6 °F (1976)
Degree Days  
Heating Degree Days 11    
Growing Degree Days 4 (Base 50)    
Moisture  
Dew Point 52 °F    
Average Humidity 92    
Maximum Humidity 100    
Minimum Humidity 87    
Precipitation  
Precipitation 0.00 in - - ()
Sea Level Pressure  
Sea Level Pressure 30.15 in    
Wind  
Wind Speed 4 mph (South)    
Max Wind Speed 9 mph    
Max Gust Speed -    
Visibility 3 miles    
Events Fog    
Averages and records for this station are not official NWS values.
T = Trace of Precipitation, MM = Missing Value Source: NWS Daily Summary

Daily Weather History Graph

Daily Weather History Graph

Search for Another Location

Airport or City:

Trip Planner

Search our weather history database for the weather conditions in past years. The results will help you decide how hot, cold, wet, or windy it might be!

Date:

Astronomy

Dec. 03, 2012 Rise Set
Actual Time 7:30 AM EST 4:50 PM EST
Civil Twilight 6:59 AM EST 5:21 PM EST
Nautical Twilight 6:25 AM EST 5:56 PM EST
Astronomical Twilight 5:51 AM EST 6:30 PM EST
Moon 9:38 PM EST (12/3) 10:51 AM EST (12/3)
Length of Visible Light 10h 22m
Length of Day
9h 20m
Waning Gibbous, 78% of the Moon is Illuminated
Dec 3
Waning Gibbous
Dec 6
Last Quarter
Dec 13
New
Dec 20
First Quarter
Dec 28
Full

Hourly Weather History & Observations

Time (EST) Temp. Dew Point Humidity Pressure Visibility Wind Dir Wind Speed Gust Speed Precip Events Conditions
12:53 AM 53.1 °F 51.1 °F 93% 30.13 in 0.2 mi WSW 4.6 mph - N/A Fog Fog
1:41 AM 53.6 °F 51.8 °F 94% 30.14 in 0.5 mi WNW 4.6 mph - N/A Fog Fog
1:53 AM 53.1 °F 51.1 °F 93% 30.15 in 1.5 mi West 4.6 mph - N/A   Overcast
2:19 AM 51.8 °F 51.8 °F 100% 30.15 in 2.5 mi West 3.5 mph - N/A   Overcast
2:42 AM 51.8 °F 51.8 °F 100% 30.15 in 1.5 mi Calm Calm - N/A   Overcast
2:53 AM 52.0 °F 51.1 °F 97% 30.15 in 1.2 mi Calm Calm - N/A   Overcast
3:09 AM 51.8 °F 51.8 °F 100% 30.14 in 0.2 mi Calm Calm - N/A Fog Fog
3:53 AM 52.0 °F 50.0 °F 93% 30.16 in 0.2 mi Calm Calm - N/A Fog Fog
4:45 AM 51.8 °F 50.0 °F 94% 30.16 in 0.5 mi SSW 3.5 mph - N/A Fog Fog
4:53 AM 52.0 °F 50.0 °F 93% 30.16 in 1.5 mi Calm Calm - N/A   Overcast
4:59 AM 51.8 °F 50.0 °F 94% 30.16 in 2.0 mi Calm Calm - N/A   Overcast
5:19 AM 51.8 °F 50.0 °F 94% 30.16 in 0.2 mi Calm Calm - N/A Fog Fog
5:53 AM 51.1 °F 50.0 °F 96% 30.18 in 0.2 mi Calm Calm - N/A Fog Fog
6:53 AM 51.1 °F 50.0 °F 96% 30.19 in 0.2 mi East 3.5 mph - N/A Fog Fog
7:40 AM 51.8 °F 50.0 °F 94% 30.20 in 0.8 mi South 3.5 mph - N/A   Mist
7:53 AM 52.0 °F 50.0 °F 93% 30.21 in 0.5 mi South 5.8 mph - N/A Fog Fog
8:03 AM 51.8 °F 51.8 °F 100% 30.19 in 0.2 mi South 4.6 mph - N/A Fog Fog
8:53 AM 53.1 °F 51.1 °F 93% 30.20 in 0.2 mi Variable 4.6 mph - N/A Fog Fog
9:53 AM 53.1 °F 52.0 °F 96% 30.20 in 0.2 mi Variable 3.5 mph - N/A Fog Fog
10:09 AM 53.6 °F 51.8 °F 94% 30.19 in 0.8 mi South 4.6 mph - N/A   Overcast
10:18 AM 53.6 °F 51.8 °F 94% 30.19 in 1.0 mi South 5.8 mph - N/A   Overcast
10:53 AM 53.1 °F 52.0 °F 96% 30.20 in 2.5 mi South 4.6 mph - N/A   Overcast
11:00 AM 53.6 °F 51.8 °F 94% 30.19 in 3.0 mi Variable 3.5 mph - N/A   Overcast
11:53 AM 54.0 °F 52.0 °F 93% 30.17 in 4.0 mi South 4.6 mph - N/A   Overcast
12:53 PM 55.9 °F 52.0 °F 87% 30.15 in 5.0 mi South 8.1 mph - N/A   Overcast
1:53 PM 55.9 °F 52.0 °F 87% 30.14 in 4.0 mi South 6.9 mph - N/A   Overcast
2:53 PM 55.9 °F 53.1 °F 90% 30.14 in 3.0 mi South 5.8 mph - N/A   Overcast
3:13 PM 55.4 °F 53.6 °F 94% 30.13 in 2.5 mi South 4.6 mph - N/A   Overcast
3:46 PM 55.4 °F 53.6 °F 94% 30.13 in 1.8 mi Variable 3.5 mph - N/A   Overcast
3:53 PM 55.9 °F 54.0 °F 93% 30.13 in 2.0 mi South 3.5 mph - N/A   Overcast
4:16 PM 57.2 °F 53.6 °F 88% 30.13 in 3.0 mi South 6.9 mph - N/A   Overcast
4:53 PM 57.0 °F 54.0 °F 89% 30.14 in 4.0 mi Variable 5.8 mph - N/A   Overcast
5:53 PM 57.0 °F 54.0 °F 89% 30.13 in 4.0 mi Variable 5.8 mph - N/A   Overcast
6:53 PM 57.0 °F 54.0 °F 89% 30.13 in 5.0 mi Variable 5.8 mph - N/A   Overcast
7:30 PM 57.2 °F 53.6 °F 88% 30.13 in 5.0 mi South 9.2 mph - N/A   Overcast
7:50 PM 57.2 °F 53.6 °F 88% 30.14 in 6.0 mi South 6.9 mph - N/A   Overcast
7:53 PM 57.0 °F 54.0 °F 89% 30.14 in 6.0 mi South 5.8 mph - N/A   Overcast
8:32 PM 57.2 °F 53.6 °F 88% 30.13 in 7.0 mi Variable 5.8 mph - N/A   Overcast
8:53 PM 57.9 °F 54.0 °F 87% 30.12 in 7.0 mi Calm Calm - N/A   Overcast
9:53 PM 57.0 °F 54.0 °F 89% 30.12 in 7.0 mi South 6.9 mph - N/A   Mostly Cloudy
10:01 PM 57.2 °F 53.6 °F 88% 30.11 in 7.0 mi South 8.1 mph - N/A   Mostly Cloudy
10:38 PM 57.2 °F 53.6 °F 88% 30.11 in 8.0 mi South 5.8 mph - N/A   Overcast
10:53 PM 57.0 °F 54.0 °F 89% 30.11 in 9.0 mi Variable 6.9 mph - N/A   Scattered Clouds
11:53 PM 57.0 °F 53.1 °F 87% 30.11 in 10.0 mi South 5.8 mph - N/A   Partly Cloudy